RADUGA 32 1 23448U 94087A 12033.52739407 -.00000139 00000-0 10000-3 0 4662 2 23448 12.1817 41.2909 0004140 128.8176 231.2773 1.00266221 80317 RADUGA-1 4 1 25642U 99010A 12033.51955146 -.00000270 00000-0 10000-3 0 5577 2 25642 11.0655 55.5346 0002532 131.2043 228.8789 1.00204528 47358 RADUGA-1 5 1 26477U 00049A 12033.62068928 -.00000201 00000-0 10000-3 0 2945 2 26477 8.6862 55.2390 0003392 323.3548 61.9625 1.00336581 41862 RADUGA-1 7 1 28194U 04010A 12033.73454212 .00000150 00000-0 10000-3 0 5497 2 28194 6.1110 69.0930 0000598 313.0039 47.0535 1.00209211 28777 RADUGA-1M 1 1 32373U 07058A 12033.60362466 -.00000035 00000-0 10000-3 0 2042 2 32373 0.0223 202.5378 0002561 91.0578 125.8821 1.00272934 16101